OBJECT B, 65551

Orbit data source: Space-Track

You're viewing an Uncataloged Satellite

Recently launched and/or uncataloged satellites may have evolving metadata. Metadata may include but not limited to: Owner, Maufacturer, Bus, Motor, and Mission.

OBJECT B, 65551 is a satellite owned by GeeSpace (CN) in LEO that was launched on Mon, 08 Sep 2025 UTC via a JIELONG-3 launch vehicle from the Yellow Sea Launch Area, China (YSLA). Unknown objects in Earth's orbit typically refer to objects detected orbiting the Earth but have not yet been identified or cataloged. These objects could be anything from previously untracked satellites, spent rocket stages, debris from satellite collisions, or even natural meteoroids temporarily captured by Earth's gravity.

Loading next visibility...
Identifier
65551, 2025-201B
Orbit
LEO
Country
Flag of CNCN / PRC
Related business
None
Manufacturer
Taizhou Xingkong
Mission
Operational spacecraft
Bus & Motor
GEESAT1, Unknown motor
Mass
130 kg wet, 130 kg dry
Launch date (UTC)
2025-09-08 (1 week ago)
Launch vehicle
JIELONG-3
Launch site
Yellow Sea Launch Area, China (YSLA)
Object type
Unknown
Shape & HBR
Unknown
Radar Cross Section
Large (>1 m²)

Expand to show TLE details & history
Last TLE update: 2 days ago

TLE from 2 days ago
0 OBJECT B
1 65551U 25201B   25258.45097634  .00000395  00000-0  75721-4 0  9995
2 65551  49.9844 234.3032 0007757 330.3420  29.7077 14.82919164   984
Epoch: 2025-09-15T10:49Z
TLE epoch observation values (Epoch: 2025-09-15T10:49:24.355Z)
Latitude
-0.00004°
Longitude
77.29624°
Altitude
615.953 km
Speed
7.555 km/s
True Right ascension
15h 37m 12s
True Declination
0° 00' 00"
Sunlit
Object was in daylight at epoch
Visualization orbit readout
Latitude
Unknown
Longitude
Unknown
Altitude
Unknown
Speed
Unknown
Apparent Right ascension
Unknown
Apparent Declination
Unknown
Sunlit
N/A
Visualization observer readout
Local Sidereal Time
03:02:42
Azimuth
Unknown
Elevation
Unknown
Doppler factor
Unknown
Orbital elements
Apogee altitude
626.315 km
Perigee altitude
615.456 km
Semi-major axis
6,999.022 km
Eccentricity
0.00078
Inclination
49.9844°
RAAN
234.3032°
Arg. of periapsis
330.342°
True anomaly
29.75179°
Mean anomaly
29.7077°
Eccentric anomaly
29.72974°
Mean motion
3.7067 °/min
Orbital period
97.12 mins
BSTAR
0.000075721
Loading maneuver chart data...
Computing Atmospheric mass density...
Loading historical data...
Loading historical data...
Loading historical data...
Loading historical data...
Loading historical data...
Loading historical data...
Loading historical data...

Documentation

Showing up to 5 results
|